Theta_e
331 327 321 316 321 316 314 314 299 303 301 296 297 299 298 303 306 304 304 305 303 316 329 331 328 325 323 321 324 328 327 325 324 318 315 336 345 348 351 353 353 352 352 352 352 351 352 353 352 351 350 349 348 348 347 347 348 348 348 349 350 350 350 351 352 352 353 353 353 353 353 353 353 353 353 353 353 353 353 352 352 351 351 351 351 351 350 350 351 351 351 351 351 351 350 350 349
329 322 316 321 317 311 308 309 303 300 299 295 296 299 301 302 304 302 303 304 304 325 330 331 333 334 334 333 333 332 329 332 334 333 335 343 346 347 352 354 353 350 351 352 352 350 350 351 351 351 350 349 348 348 347 347 348 348 349 349 350 351 351 352 352 353 353 353 353 353 353 353 353 353 353 353 353 353 353 352 351 350 351 351 350 350 350 350 350 349 350 351 351 351 350 349 348
328 318 312 317 315 312 309 305 297 297 294 292 296 297 301 300 301 304 305 306 312 329 330 328 328 329 328 327 323 323 325 336 336 339 339 344 340 344 351 354 353 352 352 352 351 350 351 350 352 351 350 349 348 347 348 347 348 348 349 350 351 350 352 352 353 353 353 353 353 353 353 353 353 353 353 352 352 352 352 351 349 350 349 349 349 349 348 348 348 349 350 350 350 350 350 348 347
319 319 311 313 308 310 305 301 299 296 293 295 294 298 299 301 302 303 306 305 305 320 327 327 325 331 327 322 327 331 331 333 338 339 336 339 343 347 351 353 354 352 352 352 351 349 351 351 352 350 350 349 348 347 347 348 348 348 349 350 350 351 352 353 353 353 354 354 353 353 353 353 353 352 352 351 351 350 350 349 348 348 348 347 347 347 347 346 346 348 349 350 350 349 349 345 343
314 315 314 312 308 303 302 299 298 298 293 295 293 298 300 302 301 303 305 306 308 324 322 326 327 333 332 330 330 328 330 338 339 342 340 344 350 350 351 353 352 351 350 351 351 349 349 350 350 351 349 349 348 347 347 347 348 349 349 350 349 350 352 353 353 353 353 353 353 353 353 353 353 352 352 351 350 350 350 350 349 349 348 347 347 346 346 347 345 347 348 349 349 349 346 343 344
311 313 312 312 305 308 303 296 296 295 299 300 296 298 300 301 301 302 304 306 305 311 317 326 320 326 330 333 335 332 338 330 339 341 342 345 349 351 352 353 351 350 349 351 350 350 351 352 351 351 349 349 348 347 347 347 348 349 349 350 350 351 352 353 353 353 353 353 353 353 353 353 353 352 352 351 351 350 349 348 347 347 347 347 346 344 344 344 344 345 346 347 348 346 343 343 345
308 309 309 307 305 305 298 296 296 297 299 300 300 300 301 300 302 303 304 305 307 323 322 322 331 329 327 331 336 339 342 341 339 342 346 348 351 352 353 351 350 349 350 350 350 349 350 352 351 350 350 349 349 348 347 347 348 349 349 349 350 352 352 353 353 353 353 353 353 353 352 353 353 352 351 351 350 349 348 347 346 346 346 346 345 345 346 345 346 346 345 346 345 343 343 344 345
310 307 304 302 298 299 296 296 296 298 298 299 300 299 302 300 302 303 302 302 303 306 329 331 332 324 328 336 328 338 343 343 344 348 349 350 350 352 353 351 349 348 349 350 350 349 352 351 351 350 349 349 348 348 348 347 348 349 349 349 350 351 352 353 353 353 353 353 353 353 353 353 352 351 350 349 350 350 350 348 348 347 346 346 346 346 345 345 345 344 344 344 343 342 343 344 345
310 308 302 301 297 296 295 294 296 297 298 298 300 302 307 305 302 302 303 303 304 304 308 328 333 320 328 330 331 336 340 345 348 350 350 350 350 352 351 350 347 347 348 349 350 350 351 351 351 351 350 349 348 348 348 347 348 348 349 349 351 352 352 353 353 353 353 353 353 353 353 352 352 351 351 350 350 349 348 348 347 345 344 344 344 343 343 343 344 343 342 343 343 343 343 344 346
307 305 300 300 298 293 294 295 293 297 297 300 299 302 303 303 301 302 302 302 302 308 309 329 330 323 331 329 331 335 339 346 348 348 349 350 352 352 352 350 350 348 348 348 349 350 351 351 351 350 350 349 349 348 348 348 348 348 348 350 351 352 352 353 352 353 353 353 353 352 352 352 351 351 350 349 349 348 347 346 346 345 345 344 344 343 342 342 342 342 343 343 342 343 342 344 345
300 303 302 297 294 293 292 293 295 296 297 299 299 302 302 303 302 302 303 303 304 303 316 330 325 328 330 329 335 340 342 346 346 344 348 350 351 351 349 351 350 350 348 349 349 351 350 350 351 350 350 349 349 349 349 349 349 349 350 350 351 352 352 352 352 352 352 352 352 352 352 351 351 350 349 347 346 347 346 346 345 346 345 344 345 344 343 343 343 342 343 343 344 343 342 343 345
299 300 299 294 294 293 293 293 294 297 298 298 299 302 305 303 301 300 302 300 302 302 305 329 316 333 328 330 333 339 342 343 346 347 348 350 349 350 349 350 350 349 349 349 349 350 349 350 351 351 349 350 349 348 349 349 349 349 350 350 351 351 351 352 352 352 351 352 352 351 351 351 350 349 348 347 346 347 347 345 345 346 346 345 344 343 341 340 341 341 342 343 343 343 342 343 345
300 298 297 295 294 294 294 292 294 297 297 298 300 302 303 302 301 303 303 303 303 302 305 324 336 333 324 329 336 338 337 342 346 348 349 349 348 349 350 349 350 348 349 349 348 348 349 350 349 349 348 350 348 349 348 349 349 349 350 350 350 350 350 351 351 352 352 352 351 351 350 350 350 348 347 347 346 345 346 346 343 343 344 345 345 344 341 341 342 341 342 343 343 343 342 342 344
302 301 298 293 293 294 293 294 293 293 295 298 300 302 301 301 302 303 304 303 303 302 310 330 335 332 329 331 331 333 336 343 344 347 348 348 349 348 349 349 349 348 348 348 348 347 348 349 350 349 348 348 349 349 348 348 348 349 349 349 349 350 350 351 351 351 351 351 350 350 350 350 349 349 348 347 346 345 345 345 346 344 343 344 345 344 342 341 342 342 342 343 342 342 341 343 344
302 299 300 296 293 293 294 293 294 294 295 298 301 300 301 304 304 305 311 316 316 308 334 338 335 325 321 327 329 333 338 342 344 346 347 347 347 347 347 348 347 347 347 349 349 347 347 348 348 349 350 348 348 348 349 348 348 348 348 349 349 349 350 350 350 350 350 350 349 349 349 349 349 349 348 347 346 345 345 344 344 345 345 344 344 345 345 345 344 342 342 343 342 342 343 344 345
305 300 299 294 292 292 293 294 293 295 296 299 300 298 300 303 306 327 331 324 322 311 334 328 337 322 330 330 334 338 341 342 344 346 345 345 345 345 346 346 346 346 347 348 347 347 347 347 348 347 347 347 348 348 348 348 347 346 347 347 348 348 348 349 349 349 349 349 348 349 348 349 349 349 348 348 347 346 345 345 344 345 344 345 344 344 345 344 342 343 343 342 343 343 343 343 344
302 303 295 294 292 291 294 294 295 293 298 299 300 300 299 300 303 332 335 321 320 328 333 335 332 338 333 334 338 341 343 342 343 343 342 342 342 342 342 343 344 344 345 346 347 347 346 346 347 346 346 347 347 347 347 347 346 346 347 346 346 347 348 348 349 348 348 348 349 348 348 350 351 349 349 348 347 347 346 345 345 343 344 344 344 345 344 345 344 343 343 341 338 338 341 343 344
304 298 296 293 295 293 296 295 297 297 298 299 300 299 299 299 302 329 334 331 331 332 333 335 337 337 338 339 342 342 342 341 341 339 338 337 339 337 339 341 341 340 343 344 346 347 346 346 345 344 345 346 346 346 346 347 347 347 347 348 348 347 348 348 349 350 349 350 348 349 349 348 348 349 349 347 348 347 346 345 345 345 344 344 344 344 344 344 344 344 343 340 337 337 336 345 345
300 298 297 293 296 296 298 298 299 297 298 299 301 301 299 300 300 306 324 327 328 327 330 333 332 335 338 339 340 340 340 340 339 339 337 336 336 335 336 339 340 341 341 342 343 345 346 345 345 344 344 346 346 345 345 346 346 347 347 347 347 347 348 349 349 349 348 348 348 347 348 348 347 347 347 346 347 346 346 344 345 344 344 344 344 344 344 344 344 343 340 339 337 335 340 341 343
303 299 295 296 298 297 296 297 298 298 300 300 301 301 298 302 301 305 320 326 328 324 326 329 330 330 334 336 338 338 339 338 338 338 336 336 336 336 336 336 338 340 340 341 342 345 346 344 344 344 344 345 345 344 344 345 345 346 344 346 346 347 347 348 348 348 348 347 347 348 346 346 346 347 346 346 347 346 345 344 344 345 345 345 342 342 342 340 339 339 338 336 338 342 340 339 339
302 299 295 298 298 298 301 298 300 300 300 300 300 301 300 302 303 309 328 325 325 327 331 330 330 331 333 335 336 337 337 337 337 337 336 336 337 338 337 338 338 339 341 343 344 343 345 345 344 344 345 345 344 343 343 343 344 344 344 343 345 345 345 347 347 347 347 347 347 346 346 346 345 345 346 346 345 344 344 344 344 344 346 345 342 343 343 342 343 342 342 340 341 341 339 340 340
301 299 302 299 297 299 302 302 300 299 298 299 300 299 301 302 316 322 322 317 321 328 332 334 334 335 334 334 336 337 336 335 335 335 335 335 335 336 338 339 341 342 342 340 341 343 345 345 344 344 345 345 344 342 343 343 344 343 344 345 345 345 345 345 346 346 346 347 346 346 345 344 344 343 344 343 344 346 346 344 343 343 343 343 343 342 343 344 344 343 343 341 340 341 342 341 340
296 301 300 302 302 300 302 302 301 299 300 300 299 302 301 301 301 312 324 321 325 331 335 337 336 337 337 338 337 336 335 334 334 334 335 334 335 337 337 338 337 338 340 340 341 343 344 344 344 344 344 344 344 344 344 344 343 344 344 344 343 344 346 344 344 345 345 345 345 345 343 343 343 344 344 345 345 346 345 345 344 344 343 342 342 342 342 342 343 343 343 343 342 341 340 341 341
299 297 299 301 302 302 304 304 302 300 299 301 303 301 300 301 299 323 327 329 333 337 336 338 338 338 338 336 337 336 335 335 334 336 336 336 337 337 338 337 338 340 339 340 341 343 343 343 344 343 342 343 343 344 343 343 344 343 343 345 344 345 343 343 343 344 344 344 344 345 344 343 342 344 344 345 346 346 346 345 346 345 345 344 343 344 343 342 341 341 342 341 341 341 341 342 341
298 297 300 300 299 301 302 302 301 299 299 302 300 299 301 301 300 326 326 332 337 337 339 339 337 337 336 336 336 336 335 335 335 336 337 338 338 338 339 339 339 339 337 339 340 341 341 343 343 342 342 342 342 343 342 343 342 343 344 344 344 344 343 343 343 344 344 344 344 345 345 343 344 345 345 346 348 345 345 345 346 345 345 345 345 343 343 343 342 340 340 339 340 341 341 342 342
299 300 300 300 301 301 302 300 299 300 300 299 299 299 301 311 309 326 328 334 337 339 338 337 336 334 334 335 336 335 334 334 335 335 335 337 336 335 335 336 337 337 338 339 340 340 341 342 341 341 341 341 341 342 342 342 341 341 343 344 344 345 344 343 343 343 344 344 343 344 345 345 345 346 344 345 345 345 346 346 345 346 345 346 345 344 345 344 343 343 341 339 336 340 339 341 341
301 300 301 301 302 302 301 301 302 299 299 299 299 300 306 321 316 312 332 337 338 337 335 335 334 333 334 335 335 335 334 334 335 336 334 334 334 334 334 336 336 337 339 338 339 339 340 341 340 341 341 341 342 340 341 342 341 341 341 344 344 343 344 343 343 343 344 345 344 345 345 345 346 345 344 344 345 345 345 344 345 345 345 345 346 344 345 344 344 343 343 342 340 339 339 340 339
299 300 298 299 300 299 300 298 298 298 300 300 300 300 309 322 310 310 330 337 339 335 333 333 333 333 334 334 334 335 335 336 335 334 332 332 332 333 333 334 336 337 337 337 338 339 339 339 339 340 341 341 340 340 340 341 341 340 342 343 343 343 344 342 342 343 344 344 345 344 345 345 346 346 346 345 345 345 345 345 345 344 344 345 344 344 345 345 344 343 343 343 342 342 340 340 340
297 297 295 295 295 297 298 298 299 299 300 299 301 299 298 311 309 313 332 336 337 334 332 332 332 333 334 334 334 334 334 334 334 334 335 334 335 335 334 336 336 336 339 338 338 339 338 339 339 340 341 341 341 340 340 340 341 340 341 342 342 343 343 343 342 342 343 344 345 345 345 345 345 346 346 345 344 345 344 344 344 344 343 343 343 343 343 344 344 343 343 343 342 342 342 341 340
297 296 296 294 295 294 299 297 296 298 300 298 301 293 297 300 307 319 332 334 336 334 331 331 332 333 334 334 333 333 333 333 333 334 334 334 335 335 335 336 337 337 337 338 338 337 338 340 340 340 341 340 340 340 340 340 341 341 342 342 343 343 343 342 343 344 344 343 344 344 344 344 344 346 345 345 344 345 344 344 343 343 343 342 342 343 341 342 341 341 340 341 340 341 340 341 339
295 295 295 293 292 293 297 297 298 297 299 298 301 294 297 299 306 325 332 334 333 330 331 331 332 332 333 333 333 332 333 335 334 334 334 335 335 335 336 336 336 337 337 337 336 337 338 339 339 339 341 340 340 340 341 341 341 341 341 342 343 344 343 343 344 344 344 344 344 344 344 344 343 343 344 345 345 344 343 342 342 341 341 340 340 341 340 340 340 340 340 339 340 339 340 339 339
294 292 290 291 291 294 296 295 297 298 297 298 299 294 297 301 316 328 332 333 333 330 331 332 331 332 333 333 333 332 332 333 333 332 333 334 335 334 335 335 337 336 336 337 337 337 337 339 340 340 340 340 340 341 342 342 342 342 342 342 343 343 343 344 344 344 345 345 345 345 344 344 343 343 343 343 344 343 342 341 341 341 340 339 339 339 339 339 339 339 339 339 337 337 338 338 338
292 292 290 289 291 293 294 297 297 298 298 297 299 295 301 305 321 330 332 332 331 330 330 331 331 331 332 333 332 332 330 330 330 330 332 333 334 335 335 336 336 337 337 338 336 336 336 338 339 339 338 339 340 340 340 340 340 341 342 342 342 342 342 343 343 344 345 345 344 344 345 344 344 343 344 343 343 342 342 341 341 341 341 340 340 341 339 339 338 337 338 338 337 335 337 337 337
289 291 291 290 291 292 292 296 295 296 297 296 297 297 304 311 322 327 327 330 330 329 329 330 330 331 332 332 333 332 331 328 328 328 330 332 333 334 336 337 337 338 338 338 337 336 336 338 339 338 339 339 338 339 340 340 340 341 342 341 341 340 341 342 343 344 344 345 346 346 346 345 344 344 343 343 342 341 341 341 342 342 342 341 341 340 339 339 338 337 336 338 337 336 336 336 335
288 289 290 289 289 291 293 293 295 295 296 296 296 297 303 304 323 325 328 327 329 328 329 330 330 330 331 332 332 332 331 330 329 330 330 332 333 334 335 337 336 337 337 338 338 338 338 337 338 338 337 337 337 338 339 340 340 340 341 340 340 340 341 341 342 343 344 345 345 346 346 346 346 345 343 342 342 341 342 342 341 341 341 340 340 339 339 338 336 335 335 335 336 336 335 336 335
289 291 291 291 290 290 292 294 295 295 296 295 296 295 297 309 321 324 326 324 328 328 331 330 330 330 330 330 331 332 331 330 330 330 331 332 333 334 336 336 337 337 337 337 337 337 337 337 337 336 336 337 338 338 339 338 338 337 336 338 339 339 340 341 343 344 345 345 346 345 345 346 346 345 343 343 342 341 341 341 341 341 341 341 339 339 339 338 336 335 334 333 334 336 336 335 335
292 292 292 291 292 292 292 292 295 293 295 296 296 297 300 313 319 322 324 322 325 327 328 328 329 329 329 329 330 328 322 321 325 327 330 331 331 334 335 336 336 336 337 337 337 336 336 336 335 333 335 337 337 337 337 337 336 336 338 338 338 339 340 342 342 344 345 346 346 345 345 345 345 344 344 343 341 340 341 342 341 341 342 340 339 337 338 338 338 337 336 335 333 333 334 336 335
292 291 291 289 291 292 293 294 295 296 296 294 294 296 305 313 319 322 324 322 323 325 326 327 328 329 328 329 328 325 322 326 327 326 326 328 330 333 334 334 335 332 334 335 335 335 336 336 335 333 335 337 338 339 338 338 340 340 339 339 340 339 340 341 342 344 345 345 345 345 345 345 345 344 344 344 343 341 341 341 341 340 340 341 339 340 339 338 338 337 334 332 333 333 332 334 334
291 292 291 290 291 292 292 292 294 295 295 295 293 294 298 315 318 321 322 323 324 328 328 328 328 328 328 328 326 324 325 324 325 325 327 328 329 331 332 333 333 334 335 334 335 335 335 335 334 335 336 337 338 339 340 339 340 342 343 340 341 340 343 344 344 345 345 344 345 345 345 345 345 345 344 343 342 342 341 341 340 342 342 341 339 339 338 337 338 336 334 333 331 330 331 334 334
292 290 290 290 290 290 290 293 295 295 295 295 294 294 296 298 303 314 323 323 325 328 328 328 331 328 327 327 325 325 324 322 323 326 327 328 330 330 331 331 332 333 332 333 334 334 334 333 333 334 336 338 339 340 340 342 343 344 344 345 343 343 341 341 341 341 342 343 343 345 345 345 344 344 344 343 342 342 341 340 340 339 338 339 339 338 338 337 337 337 336 335 334 330 331 331 334
291 291 290 290 288 290 291 292 293 294 294 295 295 294 294 296 300 307 314 322 325 320 317 320 324 329 328 327 326 327 320 321 322 325 326 327 328 329 330 331 332 332 332 332 332 332 332 331 333 335 336 337 338 339 340 342 342 342 341 342 342 341 341 341 340 340 342 343 343 344 344 344 343 343 343 343 342 342 341 340 340 339 339 339 339 338 337 337 338 337 336 334 333 331 329 332 333
289 291 291 291 291 291 290 292 293 293 293 294 292 288 290 295 295 303 314 316 318 314 314 317 322 325 324 323 321 321 323 324 324 324 323 324 327 329 330 331 331 332 332 333 333 333 332 332 333 335 337 338 340 342 344 342 341 339 338 336 334 335 335 336 336 337 339 341 340 342 343 342 343 343 343 343 342 341 341 341 340 339 339 339 338 338 338 338 337 337 336 335 334 334 331 330 330
287 289 292 292 292 291 291 291 291 289 287 292 293 288 287 293 293 295 304 315 318 314 314 318 321 323 324 323 322 321 322 323 325 325 325 326 327 328 329 330 331 331 332 333 333 333 334 334 336 338 339 340 341 341 342 342 341 341 339 336 335 335 334 335 337 338 338 338 339 340 341 343 342 342 342 342 342 341 341 341 340 339 339 339 338 337 336 335 335 337 337 336 335 335 334 328 329
287 292 292 292 291 291 291 291 291 291 293 294 291 292 288 289 293 298 299 309 315 311 316 319 320 322 323 324 322 323 324 325 326 325 327 328 328 328 328 330 330 331 332 333 333 334 335 337 339 339 340 340 340 341 342 342 340 340 340 338 336 335 335 334 336 336 337 338 338 338 339 339 341 342 341 340 341 340 340 340 339 339 338 338 337 337 336 336 336 337 337 338 338 336 335 332 331
290 291 293 291 292 292 292 292 291 292 290 289 291 293 288 288 293 305 299 301 310 311 314 316 319 321 323 323 322 324 325 327 328 327 327 328 327 328 329 329 330 332 333 333 334 335 336 337 337 337 337 337 337 339 339 339 339 340 338 336 334 334 335 334 334 335 336 337 336 336 336 335 336 338 338 339 337 336 337 337 337 337 337 337 336 336 338 337 336 336 336 336 334 336 336 335 333
292 292 294 294 293 293 293 292 291 291 288 285 289 292 287 288 293 302 304 299 305 312 314 316 318 320 321 322 323 325 326 327 328 329 329 328 328 328 329 330 330 331 331 332 333 332 332 333 334 334 334 335 335 336 337 337 337 337 337 336 334 332 333 332 333 333 333 335 333 333 333 333 333 334 335 335 335 334 334 334 335 335 336 336 336 336 336 336 337 336 336 336 336 334 335 336 331
293 293 292 291 292 292 293 292 291 289 283 286 290 291 290 285 294 301 300 301 306 312 316 318 319 319 321 323 324 325 325 325 327 328 329 328 328 328 330 328 328 329 329 329 329 329 330 330 332 333 333 333 334 335 335 335 335 335 334 334 333 331 331 332 331 331 331 332 331 331 331 331 331 331 332 332 330 330 331 332 332 333 334 334 335 335 336 336 337 337 336 335 336 334 333 333 332
293 291 290 290 289 291 290 289 291 283 282 288 290 290 290 284 290 300 307 309 310 313 315 316 316 317 319 322 324 325 325 327 328 328 326 325 326 327 328 326 326 327 327 327 328 329 329 330 331 330 330 331 332 333 334 333 332 332 333 332 331 331 330 329 329 328 328 328 327 327 327 328 327 328 327 328 327 327 328 329 330 331 331 332 333 334 335 336 336 336 336 335 333 334 334 333 331
293 292 291 286 283 284 280 285 280 281 282 287 288 289 287 287 296 305 307 309 313 315 318 318 318 318 320 323 324 324 325 327 327 326 324 325 324 325 325 325 325 325 326 327 328 328 328 329 330 329 328 330 331 332 331 331 331 330 330 330 329 329 329 328 327 326 326 325 324 324 323 322 323 323 322 322 322 323 324 325 326 327 328 330 331 332 333 334 333 334 334 333 333 332 333 333 331
291 289 288 285 281 279 276 281 283 284 286 288 289 291 287 294 297 301 306 310 312 317 321 322 320 320 321 322 323 324 326 326 325 325 324 324 324 325 325 325 324 324 324 326 327 327 327 328 329 328 327 329 329 329 329 327 327 328 328 328 328 328 325 325 324 323 323 323 322 321 320 320 320 319 319 319 320 320 321 322 323 325 326 327 328 329 331 332 332 332 332 332 332 333 333 333 332
291 293 291 288 286 281 276 280 278 280 284 287 290 287 286 288 296 306 309 311 314 318 323 324 323 323 323 323 324 325 325 325 325 324 323 323 324 324 324 323 323 323 324 324 325 327 328 328 328 327 326 327 327 326 325 324 324 325 325 326 326 325 323 322 321 321 320 320 320 319 319 319 317 318 318 319 319 319 319 320 321 321 322 324 326 327 328 329 332 331 331 333 333 334 333 333 332
292 292 293 289 287 292 284 285 286 285 284 284 287 286 294 297 305 308 311 313 314 317 321 322 320 322 322 321 322 323 323 323 324 323 322 323 324 323 323 323 322 321 322 323 325 328 327 327 327 327 326 326 325 324 323 323 322 323 323 322 322 322 321 320 319 319 318 319 318 318 317 318 317 317 318 317 318 318 317 318 318 318 320 322 324 326 327 327 328 328 329 331 331 332 331 331 332
290 290 286 289 296 293 285 283 287 284 285 283 291 292 295 303 304 308 309 311 311 314 317 319 318 319 320 320 321 320 321 322 322 321 321 322 322 322 323 323 322 321 322 322 323 325 325 325 325 324 324 324 322 322 322 322 321 320 320 320 320 319 318 317 317 317 317 318 317 317 316 316 316 316 315 316 316 316 316 316 316 317 318 321 323 325 326 325 326 326 327 328 328 330 331 330 331
291 286 290 293 296 295 290 283 283 283 281 282 292 289 292 291 288 305 307 307 308 310 314 317 318 319 318 316 314 313 313 315 320 321 320 320 320 321 322 322 322 323 322 322 323 323 322 322 323 323 322 321 321 321 321 321 320 318 318 318 317 317 317 316 316 316 316 316 316 315 315 314 313 314 314 315 315 314 314 315 314 315 317 318 319 320 322 323 325 326 327 327 327 327 328 330 330
293 291 297 289 284 284 289 287 279 279 278 282 288 291 291 293 292 300 302 305 306 309 311 314 314 315 316 315 315 315 315 316 318 318 317 317 317 318 320 320 321 322 321 321 320 320 321 321 321 321 320 320 320 320 319 318 318 317 316 316 316 316 316 316 315 316 316 315 313 313 312 312 313 313 313 313 313 312 312 312 312 313 314 314 315 316 316 317 320 323 324 323 324 326 326 324 327
294 296 293 295 293 289 285 286 288 288 280 282 283 289 288 297 301 303 306 307 309 310 311 312 314 314 313 314 313 314 315 315 314 313 313 314 316 318 318 317 317 317 317 317 316 316 317 318 318 318 318 319 319 318 318 317 316 316 316 316 315 315 315 314 315 315 314 313 312 312 311 311 311 311 311 312 311 310 311 311 311 311 312 312 312 313 314 315 316 318 319 318 319 321 321 322 322
289 290 289 290 292 293 293 291 288 286 284 283 283 283 291 299 303 306 308 309 310 311 311 312 313 313 313 314 314 314 311 310 311 312 312 312 314 315 316 315 315 315 315 315 315 316 316 317 318 318 317 317 317 316 316 315 316 315 315 315 314 315 314 314 314 314 313 312 312 312 311 311 311 310 311 310 310 310 310 310 310 310 310 311 310 311 311 312 313 314 315 315 315 316 316 317 318
291 291 289 290 289 286 283 282 289 288 288 283 283 282 294 299 303 305 309 311 311 313 312 311 312 313 314 315 314 311 310 311 312 312 312 312 313 313 314 314 314 314 314 314 315 315 315 316 316 317 316 316 315 315 315 314 315 315 314 314 314 314 314 314 313 313 312 311 311 311 312 312 311 310 310 310 310 310 310 310 309 309 310 310 309 309 310 311 310 310 312 313 313 312 312 313 315
Wind_Speed
5 5 5 2 1 1 1 4 5 1 2 3 4 2 4 1 2 6 4 2 3 1 2 1 3 3 3 1 0 5 3 4 1 5 0 2 5 10 12 14 16 16 16 13 12 13 14 15 15 18 18 18 17 16 16 16 16 16 16 15 15 15 15 15 14 14 13 14 14 14 15 15 16 14 14 14 14 13 13 14 14 15 15 15 16 16 16 16 16 16 16 16 16 16 16 16 16
3 5 3 2 1 2 2 2 1 1 0 3 6 0 6 1 0 7 9 5 1 2 4 3 7 8 8 8 8 6 5 5 1 1 1 4 8 8 13 16 17 17 15 13 12 12 12 14 15 17 17 18 17 17 16 16 15 15 15 15 15 15 15 14 14 14 13 14 15 15 15 15 15 15 14 15 13 12 12 13 14 15 14 14 14 15 15 15 15 16 15 15 15 15 15 15 14
3 4 0 1 1 3 4 1 5 2 5 7 5 5 3 3 8 4 6 1 1 4 4 1 2 3 2 2 3 3 2 1 4 4 3 10 12 9 14 16 16 16 15 12 12 12 10 13 15 17 18 18 17 16 16 16 15 15 15 15 14 15 14 14 14 14 14 14 14 15 15 15 15 15 15 14 13 11 11 12 14 15 15 14 13 14 14 14 15 14 15 14 15 15 15 14 12
1 1 1 1 2 2 3 2 3 5 7 5 5 5 6 9 6 3 2 3 5 3 2 2 3 2 3 2 3 4 4 4 4 7 6 11 9 12 13 15 15 13 13 11 11 11 11 13 14 17 18 17 17 16 16 16 15 15 15 14 14 14 14 13 14 14 13 14 14 14 14 15 15 15 15 15 13 12 11 10 12 14 14 14 13 12 12 13 13 13 14 15 14 14 13 13 11
1 1 1 1 2 2 2 1 1 4 10 5 6 4 5 3 3 2 1 4 2 3 2 1 1 4 3 5 2 2 3 3 6 7 6 9 9 12 14 15 14 14 13 13 12 11 11 16 14 16 17 17 17 16 16 16 15 15 15 15 15 13 13 14 14 14 14 15 14 15 15 15 15 15 15 15 13 12 12 11 11 12 13 14 13 11 9 8 11 11 12 13 12 13 12 12 11
1 1 1 1 1 2 3 3 3 8 7 6 6 7 4 4 3 1 2 6 1 2 3 4 3 3 1 3 2 1 7 4 5 6 10 8 13 13 15 14 14 14 13 13 11 9 11 17 15 16 17 17 16 16 15 15 15 14 14 14 14 14 13 13 13 14 14 14 14 14 14 14 15 14 14 14 14 13 11 10 10 10 12 13 13 12 10 9 9 10 10 11 11 11 11 11 10
0 2 4 3 3 1 5 7 10 8 7 5 7 7 7 4 4 2 3 6 2 2 2 3 4 5 3 2 3 3 2 1 7 6 10 11 13 14 15 13 13 14 14 12 11 9 14 15 13 16 17 17 16 15 15 14 15 14 14 14 14 13 13 13 12 13 14 14 14 14 14 14 14 14 14 13 12 12 11 10 10 9 10 10 11 11 12 11 10 9 9 10 10 10 11 10 10
1 3 1 3 3 1 4 4 8 5 2 7 1 3 5 5 1 1 0 2 2 3 2 1 3 5 2 1 2 2 1 4 3 7 9 12 13 14 15 13 13 13 12 12 11 9 15 15 14 14 16 16 16 15 15 14 14 13 14 13 13 13 13 13 12 11 12 13 13 13 14 14 14 13 12 12 11 11 11 10 9 10 10 10 11 11 11 11 10 9 8 8 8 9 10 10 10
3 3 1 2 5 2 1 6 6 1 4 3 5 5 10 2 2 5 9 4 4 5 7 6 3 6 3 5 2 1 0 1 6 11 12 13 15 16 12 13 13 12 12 11 10 11 12 13 13 13 15 16 16 15 14 14 13 13 13 13 11 11 11 13 13 11 10 11 12 13 14 13 13 12 12 12 12 11 11 10 10 10 10 10 10 10 10 10 11 10 9 8 8 9 9 10 10
3 2 4 1 2 8 4 4 4 4 7 3 4 8 8 3 1 3 11 9 9 4 5 2 3 3 5 4 2 3 1 5 8 12 13 15 15 15 13 12 12 14 12 10 10 11 10 15 12 13 12 15 15 14 13 12 13 12 12 11 9 10 10 11 10 9 10 11 10 12 12 13 12 12 12 12 12 11 10 10 10 10 10 11 10 10 8 9 10 10 9 8 8 9 9 9 10
3 3 2 4 5 6 9 6 6 2 3 4 6 10 10 9 5 7 10 13 0 7 2 7 4 5 6 2 0 2 2 6 10 14 14 14 14 14 12 11 9 12 12 12 12 11 11 12 15 12 12 13 12 12 11 11 10 9 9 8 9 10 11 10 11 10 11 12 12 12 12 12 12 13 13 12 11 10 9 9 9 9 10 11 11 10 9 8 9 10 10 8 8 8 8 8 8
3 3 3 5 7 8 3 6 4 6 5 4 7 4 4 7 3 4 9 8 6 10 11 11 5 10 6 4 3 2 5 8 10 12 13 13 12 11 10 9 10 10 11 12 12 12 12 12 11 12 12 12 12 13 11 10 9 9 9 9 9 9 9 8 9 10 11 11 12 11 12 12 13 12 12 12 11 9 9 8 8 9 10 10 10 10 8 7 7 7 8 8 8 7 7 7 8
2 2 4 2 3 3 1 2 4 1 3 6 6 3 2 6 6 9 10 10 5 7 9 13 9 8 6 6 2 2 6 9 9 11 13 12 10 10 9 9 11 11 11 12 12 12 13 11 10 10 11 13 12 12 12 11 11 11 10 10 9 9 10 8 9 9 9 12 12 11 12 12 12 12 12 11 11 9 8 8 7 8 9 10 10 9 8 8 7 7 7 7 8 7 6 6 7
3 3 6 7 3 1 4 4 1 4 5 1 3 1 3 3 5 8 7 10 8 11 4 12 11 8 3 4 2 6 9 11 9 11 10 11 9 9 10 10 11 11 11 11 12 12 12 11 10 10 11 10 10 12 13 12 12 12 11 10 10 9 10 9 9 9 11 11 11 12 12 12 11 11 12 11 10 9 8 7 7 7 8 9 10 10 9 8 8 7 7 7 7 6 6 6 6
4 1 3 0 2 1 3 6 5 6 5 3 3 1 3 5 6 5 7 10 10 4 3 10 9 10 6 11 5 11 12 14 10 11 11 10 10 10 11 10 10 11 11 11 11 11 10 11 11 10 10 10 10 8 8 11 13 12 12 11 11 11 11 11 11 11 12 11 11 10 11 11 11 12 12 11 10 9 8 7 6 6 8 8 9 10 9 8 8 8 7 7 6 5 5 5 6
3 4 1 5 5 5 4 7 1 3 3 4 3 2 5 1 3 3 3 7 3 3 10 7 7 4 3 15 3 12 15 14 12 12 11 12 12 11 10 11 10 10 10 10 11 11 10 10 10 9 10 10 9 9 9 10 12 13 12 12 12 11 11 11 11 11 11 11 10 9 8 9 9 9 12 10 10 9 6 5 5 5 6 7 8 9 9 9 8 8 8 8 7 6 4 4 6
2 1 4 2 8 7 5 6 7 4 2 4 1 4 6 7 1 1 1 3 4 7 2 2 8 4 2 3 9 15 17 14 14 14 13 10 9 9 9 9 9 9 8 10 10 10 11 10 10 9 9 10 10 10 9 9 10 13 10 10 11 11 11 11 11 11 10 10 9 9 7 5 6 7 5 6 8 5 6 6 4 4 4 6 7 8 8 8 8 8 9 9 7 5 4 5 7
4 6 5 7 6 10 4 7 7 2 2 2 6 2 5 8 4 2 3 6 4 5 2 2 5 6 4 4 12 16 18 18 17 16 13 12 9 9 8 9 10 10 9 9 9 10 9 9 9 10 9 11 10 8 8 7 9 9 9 9 9 10 10 10 9 7 8 8 9 7 5 5 4 4 4 5 3 5 6 5 4 3 3 5 6 7 8 7 8 9 9 8 6 4 1 4 6
7 2 5 11 8 2 5 2 6 0 3 7 8 3 2 4 3 1 5 2 6 6 3 3 6 8 9 10 15 18 18 17 17 15 16 15 12 13 10 9 9 10 9 9 8 10 8 9 9 10 10 10 10 9 7 8 9 7 8 8 7 8 9 9 7 7 6 6 6 5 4 4 3 2 2 2 2 4 5 3 3 3 2 3 6 7 8 9 8 9 9 7 5 1 2 3 3
3 5 8 11 3 3 4 3 3 5 6 9 10 3 1 6 2 1 4 6 7 9 8 7 7 10 11 12 15 17 18 17 17 16 16 14 13 13 11 11 10 10 11 10 9 9 9 9 9 9 9 10 9 8 7 7 7 8 7 7 7 7 7 7 7 7 6 6 5 4 4 4 3 2 3 5 5 2 2 2 4 5 5 6 6 3 3 6 5 6 7 5 2 1 2 3 3
4 5 10 4 6 2 5 7 7 7 4 6 7 6 7 2 1 2 4 6 8 9 11 9 11 17 16 19 18 17 17 17 16 15 14 15 13 11 10 11 10 10 9 9 8 9 10 10 10 10 10 9 9 8 8 8 7 6 6 6 6 6 6 6 6 6 6 6 5 4 4 4 3 3 1 2 1 1 0 0 1 0 0 0 1 2 1 1 1 1 2 3 2 1 1 3 3
6 10 0 5 4 7 4 5 2 2 2 4 6 9 8 2 3 1 6 8 6 9 10 7 2 14 20 22 20 18 18 18 17 16 15 14 14 12 10 9 9 9 9 9 9 9 10 11 10 8 9 9 8 8 7 8 8 7 7 7 7 6 6 6 6 5 5 5 4 4 3 3 3 2 2 1 2 1 1 1 0 1 1 0 0 1 1 1 0 1 1 2 2 1 0 1 2
7 5 4 3 4 3 1 2 2 3 3 3 6 4 6 4 6 3 8 12 1 2 4 6 6 13 11 14 19 18 18 18 16 16 14 13 12 11 11 9 10 10 9 9 9 7 9 11 10 9 8 8 9 8 8 7 7 7 7 7 7 7 6 6 5 5 4 4 4 4 3 3 3 3 2 2 2 2 0 1 0 0 1 1 1 1 1 1 1 0 0 1 2 2 2 1 2
6 6 3 8 7 9 4 9 1 2 1 8 5 6 10 8 11 2 6 9 8 5 6 8 12 13 16 17 14 17 17 17 15 13 13 13 12 12 11 11 10 9 9 10 8 8 8 11 10 9 8 9 8 8 8 7 7 7 7 7 6 6 6 6 5 4 4 4 4 3 3 3 3 4 3 2 1 1 0 1 1 1 1 0 1 2 1 1 1 1 1 1 2 2 3 3 2
11 9 5 1 3 4 5 6 5 4 7 8 6 7 11 4 5 2 5 7 6 5 8 11 14 15 15 15 16 15 15 14 13 13 11 9 8 9 9 7 8 9 11 10 8 9 9 9 10 9 9 9 9 9 8 7 7 7 7 7 7 7 6 5 5 5 5 4 3 3 4 4 4 3 3 1 1 1 0 1 1 2 2 2 1 1 1 1 1 1 2 2 2 2 2 3 3
8 8 3 2 3 4 4 2 6 6 3 3 4 9 7 1 0 5 5 5 2 8 9 12 15 16 17 17 15 15 14 14 13 12 11 8 9 11 10 9 8 10 10 11 8 8 9 10 10 10 10 8 9 8 7 7 7 7 6 6 6 6 5 5 5 5 4 4 4 3 3 3 3 3 2 1 2 1 1 2 2 2 2 2 3 3 2 2 2 1 1 2 2 2 2 2 3
5 6 8 8 8 4 2 7 4 2 4 3 7 9 1 5 3 3 5 4 6 9 10 12 15 17 17 16 13 11 12 12 12 10 10 10 9 9 10 10 9 10 10 10 9 7 9 8 10 10 9 9 8 8 8 7 7 7 6 5 5 5 5 5 5 4 4 4 4 4 4 3 2 2 2 2 2 2 2 2 2 3 3 3 3 4 3 4 3 3 3 3 2 2 2 2 3
3 4 3 5 6 4 5 2 6 1 6 9 11 8 2 3 1 4 4 7 9 10 12 12 13 15 16 14 12 10 10 10 10 10 11 12 9 9 11 10 10 10 10 9 8 7 10 10 10 10 9 9 9 8 8 7 7 6 6 5 4 4 5 4 4 4 4 4 4 4 4 3 3 2 2 2 2 2 2 2 3 3 4 3 3 4 4 4 4 4 4 3 3 3 3 3 2
3 4 3 2 1 6 6 9 6 7 7 6 8 4 5 5 6 1 5 8 10 10 12 12 13 15 15 14 11 9 10 9 9 9 9 8 7 8 10 9 10 10 7 10 10 10 11 11 10 11 10 10 10 9 8 7 6 6 6 5 4 4 4 4 4 4 4 3 3 4 4 4 3 3 3 2 2 2 3 3 3 3 3 3 3 4 5 4 4 4 4 3 4 3 3 3 3
4 2 3 1 4 5 7 1 0 8 3 6 7 6 5 8 6 2 6 9 11 11 12 12 11 13 13 12 9 8 8 8 8 8 8 7 8 8 9 8 9 8 8 8 10 11 10 6 7 8 10 10 9 8 8 7 6 5 5 5 5 5 4 3 3 4 4 3 4 4 4 4 3 3 2 2 2 3 3 4 4 4 3 4 4 4 4 4 4 4 4 4 4 5 4 3 3
7 3 1 3 4 6 4 3 6 8 2 8 7 7 5 4 4 5 8 11 13 13 12 12 12 13 12 11 10 7 7 7 8 8 7 8 8 8 9 9 10 9 8 9 11 11 10 8 8 7 10 9 9 8 8 7 7 6 6 5 4 4 4 3 3 3 3 3 3 3 3 3 3 3 3 3 2 3 3 3 4 3 4 4 4 4 4 3 4 4 3 4 3 4 4 4 4
2 6 7 2 6 2 3 3 8 11 2 4 7 7 6 2 3 6 8 10 11 11 13 14 13 14 13 10 10 6 7 7 8 8 8 9 8 8 9 10 10 10 10 10 10 11 11 9 9 9 10 9 8 7 6 6 6 5 5 5 4 4 3 3 3 3 2 2 2 2 2 2 2 2 2 2 2 2 3 3 3 3 4 3 3 3 3 4 3 3 3 3 4 4 4 4 4
2 7 3 6 4 2 3 6 4 2 3 4 12 4 1 5 4 6 6 10 11 10 12 13 14 15 13 11 10 7 7 7 7 8 9 9 8 8 9 10 10 11 10 10 11 11 11 11 10 10 10 9 7 7 7 6 6 5 5 4 4 3 3 2 2 2 2 2 1 1 1 1 1 1 1 1 2 2 2 3 3 3 3 3 3 3 3 3 3 3 3 3 4 4 4 5 4
5 1 3 1 8 5 4 2 2 3 4 7 6 4 5 2 8 7 3 8 12 12 12 13 12 12 12 11 10 8 7 7 7 7 9 8 7 8 8 9 10 10 10 10 11 11 11 10 10 9 8 7 7 7 7 6 5 5 4 3 4 3 3 2 2 2 2 1 1 1 1 1 1 1 2 1 1 2 2 3 3 3 3 3 3 2 3 3 3 4 5 3 4 4 4 4 4
7 7 6 4 1 3 4 5 2 3 3 6 7 5 6 2 8 10 13 7 13 13 12 12 11 11 11 10 11 10 7 8 7 7 8 8 9 8 8 9 9 10 9 11 11 10 9 9 8 9 7 7 7 7 7 6 6 5 4 5 4 4 3 2 2 2 2 1 1 0 1 1 1 2 2 2 3 3 3 3 3 3 3 4 4 4 3 1 2 3 4 4 3 4 5 5 4
8 8 8 4 8 6 8 3 2 2 6 8 8 9 8 7 10 11 9 8 13 12 10 9 9 10 11 12 11 8 6 6 6 7 7 7 7 8 8 9 9 8 9 10 11 11 10 9 8 7 7 7 8 7 7 7 6 5 5 5 5 4 4 3 3 2 2 1 1 1 1 2 2 2 3 4 4 3 3 3 3 3 4 4 3 3 4 3 4 4 3 4 4 4 3 4 3
8 4 6 5 6 4 1 3 1 1 3 7 6 6 7 11 13 14 13 8 10 10 10 10 11 12 11 11 7 6 9 10 9 7 7 3 5 7 7 8 9 9 9 11 11 11 11 9 9 8 7 8 7 7 7 7 6 6 5 5 5 4 4 4 3 3 2 2 2 2 3 3 3 3 3 4 4 4 3 3 4 4 3 4 5 4 4 5 4 3 4 4 4 3 2 2 2
10 7 8 4 4 8 3 1 3 2 4 2 2 4 6 12 14 15 12 10 12 13 13 13 15 15 13 12 8 5 7 9 8 9 9 2 3 6 7 7 9 10 10 10 11 11 11 10 9 8 7 7 7 7 7 6 5 4 5 5 5 4 4 4 4 4 3 2 3 3 3 3 3 3 3 3 3 3 3 4 4 5 4 3 4 5 5 5 4 4 3 2 3 3 3 2 1
3 7 5 6 5 3 1 3 3 3 2 1 3 7 6 9 13 13 13 13 13 15 15 15 16 17 14 9 7 6 7 7 7 7 10 8 5 5 6 7 7 8 8 10 10 11 11 10 8 8 7 7 7 7 6 5 5 5 6 5 5 5 2 1 2 2 2 2 2 2 2 2 2 2 3 3 3 3 3 3 4 4 4 3 4 4 4 5 4 2 3 5 3 3 4 3 3
5 4 7 8 2 5 8 1 3 5 2 2 4 5 2 2 1 6 13 15 13 16 12 4 7 14 13 11 8 6 7 7 4 4 7 8 5 3 4 6 7 7 8 8 9 10 9 9 9 8 8 8 7 6 6 7 7 6 5 4 2 2 3 3 3 2 2 2 2 2 1 1 1 2 2 3 3 3 3 4 4 4 4 4 4 5 5 4 4 5 5 5 6 6 4 4 6
2 4 3 5 4 1 2 2 3 1 2 2 4 1 1 3 8 8 8 9 11 5 9 2 5 1 2 4 5 6 12 13 8 5 6 5 5 4 5 6 6 7 8 8 9 9 8 10 11 10 9 8 7 8 8 7 7 6 6 4 4 4 3 4 4 4 3 3 3 2 2 1 1 1 2 2 2 3 3 3 3 4 4 4 4 5 5 6 6 4 3 4 5 5 6 4 5
6 4 7 6 2 2 1 2 2 3 3 2 2 4 6 4 7 10 12 8 6 8 7 9 10 9 7 7 8 9 8 6 10 12 10 5 3 4 5 6 7 7 8 8 7 7 8 9 10 10 8 8 8 9 8 7 8 8 7 7 6 5 4 4 3 3 2 3 3 3 3 3 3 3 2 2 1 0 1 2 2 3 3 4 4 5 6 6 6 6 5 5 6 7 7 6 7
9 9 8 7 4 2 1 3 1 4 7 3 2 8 3 2 6 8 8 14 13 10 13 13 11 11 10 9 9 9 10 7 4 8 12 12 8 6 6 6 7 8 8 8 7 8 9 10 10 10 9 8 7 8 8 7 6 6 6 4 3 3 4 3 3 2 2 3 3 3 3 4 3 3 3 2 2 1 2 2 2 3 3 3 4 4 5 6 6 6 5 6 6 6 6 8 8
9 7 12 7 6 6 2 3 2 1 4 1 2 2 5 4 6 5 8 12 14 10 13 13 13 12 12 11 11 11 11 11 11 10 9 10 10 8 7 7 6 7 8 8 8 9 10 10 10 9 8 7 6 5 5 4 5 5 6 6 5 5 5 5 5 4 3 2 3 4 4 4 5 4 5 4 4 3 2 1 2 3 3 4 4 4 5 5 5 6 6 6 5 5 6 7 7
3 6 12 10 10 6 5 4 2 1 3 6 3 3 4 6 2 2 8 10 15 12 14 14 14 15 14 14 13 14 13 14 12 12 13 11 10 7 6 6 7 8 8 8 8 9 9 9 8 7 7 6 5 6 6 4 4 5 6 7 7 6 6 5 4 2 3 3 5 4 4 4 4 4 5 4 5 5 4 4 3 3 4 4 4 5 5 4 5 6 6 6 7 5 5 6 7
4 10 6 5 6 3 6 5 5 2 3 9 7 7 7 4 3 3 4 10 14 14 15 14 15 16 15 14 14 14 12 11 8 11 12 11 10 8 8 8 9 8 8 9 10 9 7 7 8 9 8 6 5 7 7 7 6 5 5 6 7 5 4 3 3 4 4 3 5 4 3 4 3 3 4 4 5 5 5 5 4 3 4 4 5 5 5 5 5 5 6 7 7 8 5 5 7
10 13 10 6 4 3 3 2 1 2 6 11 5 8 7 7 6 7 9 7 11 13 12 12 10 13 13 13 14 13 13 11 10 12 12 11 11 11 11 10 10 11 9 9 8 7 7 7 8 10 8 6 6 7 8 7 6 5 5 6 6 6 5 4 4 4 3 3 3 4 3 3 3 3 3 4 5 6 5 5 5 4 4 4 4 5 5 5 5 5 6 7 7 8 7 8 8
16 7 8 9 4 3 3 2 2 6 11 2 6 9 9 10 3 4 8 5 13 17 18 18 16 16 15 13 12 13 12 12 13 13 13 14 14 12 11 11 12 11 10 9 8 8 7 7 9 10 7 6 6 6 8 7 7 6 6 6 6 5 5 4 4 4 3 3 4 3 3 2 3 3 4 4 5 7 5 4 5 5 4 4 5 5 5 5 6 6 5 5 7 7 8 8 8
11 10 12 12 7 3 5 5 6 11 7 3 1 4 5 14 2 1 5 4 3 7 12 16 18 18 17 15 14 12 11 12 13 14 13 13 12 12 12 12 13 10 9 10 9 8 7 7 9 10 8 7 7 8 9 8 7 7 6 6 6 4 5 4 4 4 4 3 3 3 3 3 3 4 5 5 6 7 5 5 6 5 5 5 6 6 6 6 6 6 7 7 6 8 9 9 8
13 15 14 13 10 9 7 11 2 2 2 2 1 4 7 4 3 1 2 2 1 3 7 12 16 17 16 13 12 12 13 12 13 13 13 12 12 11 12 12 12 9 9 9 9 7 6 6 8 11 9 7 8 8 8 9 8 7 6 5 5 4 5 5 5 5 4 4 4 4 4 5 4 5 5 6 6 7 6 6 6 6 6 6 6 6 6 6 6 6 7 8 8 8 8 10 10
11 4 12 11 8 6 8 8 10 7 4 4 2 5 4 8 3 1 1 2 3 1 6 11 13 13 14 10 10 12 13 12 13 13 13 13 13 14 12 12 9 8 9 7 6 8 7 6 8 10 9 8 9 9 8 9 7 7 6 5 5 5 5 5 5 5 5 5 4 5 5 5 5 5 6 6 6 7 7 7 7 6 6 7 7 6 6 6 6 6 7 8 7 8 9 9 9
4 2 2 5 11 2 6 1 4 4 4 2 5 4 2 1 1 2 2 5 4 4 7 12 10 11 14 11 12 12 11 12 12 13 14 14 15 15 13 10 9 8 8 5 5 7 7 7 8 9 9 8 8 8 8 7 7 7 7 8 7 7 6 5 5 5 5 5 5 5 5 6 6 6 6 6 7 7 7 7 7 7 7 7 6 6 6 6 6 6 6 7 9 7 9 11 10
9 5 13 8 6 5 4 2 4 3 1 6 3 1 2 1 2 3 5 6 7 7 9 14 14 14 15 14 11 8 8 9 10 11 12 15 14 12 12 12 9 9 8 5 6 7 9 8 8 10 9 8 8 8 7 7 7 9 9 8 7 8 8 7 6 6 5 6 6 6 6 6 6 6 6 6 7 7 7 8 7 7 7 7 7 7 7 5 6 5 5 6 7 8 9 10 10
7 11 9 6 4 3 2 4 1 3 7 3 2 5 4 6 3 7 6 8 9 9 10 13 15 15 16 11 11 10 8 3 4 11 11 12 13 12 10 11 12 11 10 10 8 7 7 7 7 9 9 9 8 7 7 7 8 9 9 8 8 7 7 6 6 6 6 6 6 6 6 6 7 7 7 7 7 8 8 8 8 8 7 7 8 7 8 8 8 8 8 8 8 7 9 9 10
11 9 8 11 5 10 2 1 4 5 5 3 3 1 2 7 5 5 9 12 13 13 10 13 14 14 14 14 13 11 14 16 13 13 11 10 10 10 10 8 10 10 10 9 9 9 8 8 7 9 10 9 8 6 7 7 8 7 6 7 7 7 6 6 7 7 6 7 7 7 7 7 7 8 8 8 8 9 9 9 9 8 8 9 8 8 8 8 8 7 7 8 8 9 8 9 10
3 7 12 1 2 5 6 3 1 3 3 1 5 4 2 6 5 12 12 14 16 15 15 14 15 15 12 14 13 14 11 6 9 8 10 10 11 11 11 10 10 9 9 8 8 7 9 8 9 9 9 9 9 9 8 8 8 8 7 7 7 7 7 7 6 6 6 7 8 8 8 8 8 7 8 8 8 9 10 10 9 9 10 9 10 9 9 9 8 7 8 7 8 9 9 8 8
8 11 11 5 1 3 1 2 3 4 2 3 1 3 2 3 3 9 11 14 17 18 16 11 10 13 13 14 15 12 12 14 14 11 14 14 9 7 10 8 9 9 8 7 7 8 8 8 9 9 10 9 9 8 8 7 7 8 8 8 7 6 7 6 7 7 8 8 8 8 8 7 7 8 8 9 9 9 10 10 10 10 10 10 10 10 9 8 8 8 8 9 9 9 10 9 8
12 11 10 9 7 8 12 9 4 0 2 2 3 3 3 2 1 3 4 7 11 14 14 12 12 14 15 14 13 15 14 14 15 13 13 15 13 11 9 10 8 8 9 9 8 8 8 8 8 8 8 8 8 8 8 8 7 7 7 7 7 6 6 6 8 9 9 8 8 7 7 7 8 8 9 9 9 9 8 9 9 9 9 9 9 9 9 9 8 9 9 7 9 10 10 10 9
Wind_Direction
315 324 314 325 272 296 305 9 287 99 332 272 298 247 294 190 309 293 271 318 289 111 302 357 180 182 235 264 336 89 15 176 66 189 195 46 164 154 161 151 146 147 145 149 148 149 155 157 150 135 134 135 136 136 135 134 134 134 133 131 130 128 128 129 129 127 127 128 126 125 124 121 119 117 116 114 111 107 107 108 107 103 100 103 106 106 104 103 103 100 100 100 100 100 96 94 91
310 317 321 278 357 318 166 303 107 204 173 265 244 329 269 154 318 255 288 312 270 134 156 100 94 97 86 88 105 139 76 20 291 43 44 146 150 152 157 152 152 148 148 148 147 152 157 159 150 133 132 134 136 137 136 136 136 135 133 131 128 127 127 129 130 130 130 129 128 125 122 120 118 115 114 112 107 102 101 103 104 104 102 105 107 108 106 103 103 105 103 102 102 101 98 96 91
331 335 335 185 42 30 105 299 255 165 240 253 247 222 56 236 244 248 267 165 291 158 148 156 95 90 133 148 172 330 113 125 143 154 116 153 152 162 160 154 152 146 147 147 148 153 158 159 149 133 131 134 137 139 139 139 139 137 134 130 128 127 127 130 131 132 133 131 128 124 121 118 114 113 111 107 104 100 99 102 106 104 102 104 109 111 109 107 108 107 107 100 101 101 97 92 88
315 40 336 7 159 298 130 127 211 199 237 246 287 229 241 254 279 247 247 308 277 232 236 159 222 39 255 205 63 114 100 168 200 158 149 169 171 158 157 153 148 147 148 149 150 156 160 157 148 133 131 134 139 141 142 142 141 138 134 131 129 127 128 129 131 130 131 127 124 121 118 114 113 113 108 105 100 95 96 100 102 100 98 99 103 108 112 112 112 113 112 107 102 100 93 87 81
263 27 308 83 178 173 174 165 213 186 238 152 239 291 240 241 85 165 58 316 338 243 300 91 154 58 31 57 96 251 143 104 171 180 161 165 154 160 157 152 150 152 154 153 153 156 159 153 146 132 132 137 141 143 145 145 143 139 136 134 131 129 128 127 129 128 125 123 123 120 117 115 115 113 107 106 98 95 95 92 93 92 94 95 94 93 98 104 112 112 114 107 105 97 94 87 80
112 232 17 306 252 50 78 173 183 214 221 160 235 263 259 69 151 109 331 320 62 242 239 192 296 166 162 29 2 175 146 150 172 195 169 165 158 159 157 153 154 156 154 155 155 155 157 150 144 134 133 139 143 145 147 147 144 139 137 133 131 129 126 126 126 125 125 124 121 121 117 118 115 107 103 101 95 95 92 92 92 93 95 98 98 99 99 106 108 111 114 108 108 104 97 90 85
190 110 7 77 94 283 240 218 229 219 217 197 224 229 266 110 127 152 26 342 140 118 163 202 130 101 159 123 118 108 254 213 174 174 176 156 154 160 158 157 156 154 153 155 156 153 154 147 142 137 137 141 144 145 145 144 141 140 138 134 130 127 128 125 123 124 124 123 123 121 120 112 105 102 99 96 97 93 91 91 92 92 93 97 103 108 107 100 98 96 110 105 107 106 99 95 95
79 228 17 215 165 263 212 224 240 182 217 209 1 276 302 128 171 316 215 182 286 279 83 124 159 243 63 290 218 104 300 224 203 141 157 158 157 159 161 159 157 152 152 154 154 155 149 143 140 139 138 141 143 142 142 141 140 141 138 134 131 128 127 124 119 120 123 127 126 122 116 110 106 104 104 104 103 100 94 89 91 92 93 93 98 100 103 103 104 102 98 110 111 105 101 97 99
29 75 307 151 192 30 201 218 240 96 308 261 258 250 278 201 283 296 282 211 273 263 252 187 182 219 150 176 204 45 316 279 168 139 157 157 160 163 164 163 160 154 152 153 152 154 149 140 137 137 139 140 140 140 141 140 140 140 137 134 128 120 123 124 122 121 125 123 121 116 110 106 105 103 104 100 93 91 90 87 83 83 84 86 87 94 100 109 110 115 118 116 109 102 98 97 102
82 288 179 176 63 218 218 220 224 212 221 260 275 259 255 273 231 269 275 270 229 231 242 141 154 249 131 173 156 189 149 166 153 145 165 165 166 163 164 162 160 153 149 150 152 152 145 137 134 136 139 138 137 139 139 139 138 138 137 129 116 114 116 116 114 113 113 117 114 112 108 107 105 101 96 89 89 87 89 89 89 88 88 88 86 87 96 106 116 119 118 113 111 104 99 99 106
165 48 17 185 198 230 215 225 222 235 224 265 261 251 263 265 243 249 249 254 170 232 148 167 173 153 173 163 259 53 199 175 165 163 169 169 166 165 159 159 150 154 152 150 151 148 144 142 138 137 136 135 133 133 133 132 130 125 119 110 106 107 114 111 113 110 115 117 115 112 110 109 106 100 94 92 91 92 95 96 91 91 89 85 88 88 87 94 109 113 109 106 103 103 101 104 114
153 179 168 213 220 220 211 245 231 244 275 264 261 237 218 225 183 238 248 245 217 222 225 171 199 153 157 160 204 158 159 181 178 165 169 165 166 160 153 151 148 149 149 150 149 148 148 144 145 138 134 131 129 131 129 120 116 112 106 105 104 106 107 107 108 116 122 120 114 114 115 109 102 99 100 100 97 94 92 92 94 87 89 92 87 86 88 92 101 108 112 112 112 110 109 113 124
190 105 161 202 222 216 104 255 240 264 271 229 239 204 114 171 205 237 264 257 217 224 230 195 120 167 156 177 82 167 195 186 177 161 163 164 157 153 148 147 145 146 150 153 152 150 148 147 142 147 139 131 127 128 125 114 112 112 113 110 111 116 119 114 119 121 122 118 116 118 113 107 106 107 105 102 101 98 98 97 94 97 91 89 93 93 97 104 108 108 107 110 113 114 121 122 137
172 193 149 212 52 198 188 229 99 241 233 206 220 234 199 254 235 254 267 263 218 211 232 167 155 156 96 135 214 204 201 177 168 162 160 157 146 141 146 146 147 148 151 155 151 153 151 148 143 143 141 140 135 132 128 119 118 120 120 115 116 118 118 107 108 113 119 115 117 118 118 115 111 110 109 107 108 105 101 100 98 94 97 96 99 94 87 88 92 93 94 96 105 115 121 131 143
178 175 164 354 170 151 195 223 223 201 256 183 160 196 284 237 264 274 252 258 260 182 80 163 160 169 198 181 180 202 182 172 159 159 157 142 143 149 145 146 146 151 152 153 148 152 149 144 146 144 139 141 140 138 138 132 128 128 126 124 125 124 119 113 113 120 123 124 122 122 124 122 119 117 116 115 114 113 109 106 99 99 93 93 94 96 97 90 83 84 82 80 91 104 114 124 148
132 143 106 203 213 204 194 208 69 205 218 206 115 272 266 301 183 300 294 232 343 190 164 174 222 235 145 187 165 166 157 158 153 154 150 150 150 146 143 149 150 153 154 150 148 151 151 150 147 142 140 141 143 141 141 141 140 138 136 136 133 131 129 122 121 126 126 124 124 120 120 131 132 124 118 120 115 113 113 104 108 99 96 96 95 96 96 91 83 80 79 79 77 76 89 112 128
103 228 170 181 227 187 181 187 155 214 144 249 303 348 2 315 338 143 46 180 198 156 215 136 187 349 236 150 138 140 149 150 151 156 151 149 150 148 150 154 155 157 154 153 151 153 157 155 144 140 140 141 143 142 141 141 142 142 136 137 139 135 134 132 127 127 129 125 123 108 113 118 111 116 119 106 115 112 125 128 115 99 93 91 93 90 93 96 95 87 83 80 76 71 56 98 108
165 185 193 210 212 203 167 180 184 42 172 231 310 22 312 315 354 142 112 77 97 141 151 91 44 55 102 100 134 137 146 151 159 156 158 157 157 155 155 161 162 161 156 155 155 152 152 151 147 145 146 146 142 140 143 143 144 148 145 145 146 143 140 139 142 144 141 137 120 131 135 122 121 111 111 102 105 128 132 131 131 110 88 84 84 87 87 88 87 92 93 91 84 82 301 140 120
185 138 201 226 196 182 156 184 201 188 301 308 297 290 236 290 323 359 254 126 145 163 155 141 87 86 98 117 125 142 150 153 160 164 162 162 163 163 165 165 166 158 158 154 150 152 152 150 147 150 150 146 142 141 144 142 142 144 146 144 142 149 143 142 143 141 146 138 145 143 139 129 114 108 99 107 109 92 70 96 120 129 110 89 70 65 63 66 67 75 88 90 83 130 177 120 132
200 186 206 230 124 160 230 198 183 215 285 296 308 330 142 300 247 300 251 168 173 188 174 168 157 146 141 134 141 149 155 161 165 166 168 166 166 166 165 167 167 163 162 161 154 155 153 158 149 143 152 149 146 143 145 144 143 148 148 146 148 149 144 144 149 150 149 150 148 144 144 130 123 141 114 138 128 102 106 99 57 86 73 60 41 64 71 70 78 82 81 99 123 153 125 143 139
151 204 219 218 150 173 202 196 234 232 240 274 289 299 299 4 302 267 137 172 208 209 207 186 178 162 157 157 155 155 162 165 166 167 168 168 165 168 168 169 167 161 165 157 151 151 153 153 152 152 157 153 146 145 148 148 147 149 149 150 151 156 153 150 152 160 159 156 151 150 144 139 139 136 120 66 62 105 98 41 187 214 305 160 34 359 356 72 112 98 130 128 89 110 142 132 145
131 220 134 99 133 215 212 217 217 226 183 275 284 301 308 327 186 262 200 232 218 216 209 212 171 170 158 163 163 163 166 168 169 167 170 166 163 160 158 156 155 156 157 164 162 150 158 154 158 154 156 152 151 152 152 147 148 150 149 149 151 154 158 163 163 163 161 161 155 150 147 147 150 147 152 157 162 200 222 91 97 163 217 249 220 338 335 327 15 111 100 109 118 133 170 188 168
209 211 236 191 180 211 117 207 211 197 254 267 292 302 327 298 295 256 231 237 300 309 198 182 152 176 172 156 159 167 169 170 168 167 164 160 160 157 160 159 161 161 166 164 156 151 159 154 159 158 153 154 154 151 150 148 154 151 150 153 153 159 163 166 169 167 164 163 158 155 159 165 158 162 168 182 186 205 250 284 80 198 201 198 207 237 253 303 306 333 257 138 140 147 170 210 213
241 226 130 213 196 224 217 267 178 241 250 265 263 326 291 294 303 117 222 237 270 296 206 159 146 170 170 169 170 170 171 166 163 163 163 159 162 163 160 161 163 160 165 157 155 144 148 153 160 162 157 159 156 155 153 151 151 157 156 156 160 160 163 164 165 168 161 159 158 159 154 168 167 166 161 188 129 224 297 284 301 277 281 280 196 236 229 214 237 265 266 245 194 164 168 188 211
207 238 176 195 154 216 232 239 255 246 250 264 287 284 269 272 263 155 243 264 274 170 144 139 150 164 170 173 173 171 167 163 162 164 162 159 148 159 155 150 151 163 166 162 159 144 143 148 160 166 160 162 160 161 158 154 156 157 163 163 162 166 167 161 159 161 163 159 163 165 158 173 182 185 190 160 220 288 318 270 271 307 317 328 308 289 261 281 249 251 260 261 237 211 182 183 197
222 219 118 136 211 206 217 226 238 234 260 218 252 251 270 44 237 241 257 272 195 156 149 152 157 163 171 177 175 173 168 163 162 163 158 152 159 163 168 163 159 168 169 167 152 146 143 142 165 168 164 165 163 164 159 157 162 165 160 167 164 171 158 159 159 172 171 167 164 180 184 190 195 204 222 254 272 304 306 280 272 279 288 305 306 309 318 301 303 293 270 265 271 249 230 192 206
178 207 217 239 247 259 208 231 239 182 239 174 221 257 244 131 299 236 219 207 167 160 156 159 162 168 172 172 175 172 165 166 164 158 145 140 145 160 165 167 165 168 165 163 167 147 142 152 173 171 166 167 164 164 162 158 165 167 177 169 173 168 161 159 171 177 184 183 173 175 192 197 206 209 216 227 243 262 262 264 273 294 295 304 301 307 310 304 302 297 305 317 313 296 267 233 239
150 166 150 218 246 247 243 249 255 205 268 198 221 258 51 215 229 260 166 175 172 159 157 161 167 169 169 171 171 168 170 169 164 154 150 153 163 168 167 172 170 165 167 164 165 149 147 162 162 168 170 168 168 164 163 164 165 168 173 174 170 168 172 175 175 180 184 186 179 178 186 197 195 211 224 218 242 252 277 291 304 300 311 314 302 295 297 294 292 295 295 286 288 279 279 261 248
145 166 207 202 262 230 202 227 229 176 242 175 198 229 238 184 226 320 179 168 173 166 159 164 168 171 169 170 167 168 173 167 164 175 171 170 164 170 169 177 170 168 167 168 164 156 157 162 159 164 170 172 170 167 167 168 167 167 171 172 171 174 178 179 182 188 191 190 190 195 197 195 203 222 219 230 235 270 292 295 307 315 320 318 304 296 294 289 279 279 279 272 262 255 260 259 255
129 117 227 236 187 217 202 163 66 188 227 160 165 226 206 217 224 262 180 179 167 164 165 165 167 172 169 169 165 162 155 152 163 164 156 158 162 166 166 169 172 172 167 160 162 167 161 157 164 166 171 171 173 169 167 170 170 165 168 172 174 178 174 180 185 191 193 199 206 209 208 208 215 234 244 236 257 284 306 316 325 330 336 325 312 305 301 300 293 289 285 273 264 262 259 264 271
199 139 170 230 199 227 156 194 153 204 171 180 200 242 217 233 241 194 186 190 173 167 168 169 169 171 173 171 169 155 142 159 157 143 138 149 155 166 165 163 168 171 165 161 166 164 162 161 164 168 171 171 171 170 169 165 162 161 167 171 166 176 177 189 189 188 192 201 214 221 217 219 226 232 239 271 287 306 318 322 324 331 330 320 314 307 304 302 296 295 297 288 282 271 270 271 279
135 159 207 135 215 208 243 163 179 208 160 214 198 238 227 284 249 186 185 190 181 175 172 175 173 176 176 174 172 150 144 139 132 130 137 143 149 159 163 163 166 170 173 166 161 159 164 165 165 166 167 170 168 166 160 152 153 157 159 160 163 175 181 196 189 187 192 199 214 220 214 222 232 230 250 277 303 319 322 322 326 322 319 312 306 306 303 301 310 306 303 302 297 288 281 275 276
22 219 106 172 178 207 288 188 229 337 115 187 207 222 105 248 198 178 178 187 189 184 180 180 180 181 178 176 177 153 140 135 128 132 140 143 148 153 159 162 166 170 169 164 159 159 163 168 166 165 167 164 155 148 144 142 144 146 152 156 167 165 179 187 189 181 188 197 196 204 179 200 216 246 262 276 305 315 311 309 319 318 317 309 296 306 295 314 316 314 307 311 305 299 288 283 273
180 318 162 139 188 174 217 108 148 207 230 179 216 209 198 36 165 151 129 173 190 193 189 188 183 183 186 181 183 174 163 143 139 138 139 141 145 150 152 157 162 167 165 160 158 160 162 165 161 162 157 149 142 144 146 139 136 142 144 150 154 154 152 172 160 170 172 173 179 135 110 159 215 220 233 241 261 266 275 285 298 308 314 313 307 311 324 333 328 309 310 299 297 303 297 296 293
162 160 158 163 338 235 221 195 127 189 190 214 173 222 201 141 159 185 192 179 191 193 190 188 189 187 187 191 196 192 175 162 144 137 141 139 144 148 150 150 159 164 165 158 156 159 156 151 150 155 143 141 138 138 133 125 129 131 132 137 133 133 137 135 146 152 142 142 124 107 199 210 213 222 218 212 227 226 242 254 259 295 307 307 307 308 298 307 272 269 282 287 279 294 297 295 294
143 162 175 146 172 176 205 233 322 234 186 212 179 197 187 158 178 201 196 189 193 196 188 182 192 193 198 199 199 191 164 112 89 114 125 135 143 151 151 151 158 164 164 160 157 156 152 140 140 138 139 137 133 132 135 136 137 140 141 133 126 127 133 141 156 156 160 171 179 221 231 239 229 213 205 207 229 229 233 245 258 258 270 278 285 290 280 261 329 310 261 267 288 277 279 297 290
139 130 164 167 169 173 306 284 199 283 208 216 205 190 173 167 181 200 201 189 202 205 186 195 195 197 204 206 194 117 99 95 81 46 38 54 148 145 149 149 149 154 163 159 159 157 155 149 138 139 137 140 140 143 145 144 144 141 141 140 133 138 146 148 157 174 181 172 208 228 234 237 240 233 218 210 212 218 230 236 235 247 258 273 267 279 301 305 295 328 293 235 248 281 284 280 270
152 157 174 169 207 182 139 125 331 327 235 140 122 161 179 175 182 197 193 189 201 203 194 201 201 204 211 207 185 131 126 112 115 115 110 43 269 151 144 140 146 158 157 157 161 157 156 148 137 137 143 151 154 155 149 156 162 154 144 142 136 142 153 169 174 173 187 196 217 225 226 227 226 227 220 216 218 218 228 238 244 253 254 256 279 267 263 281 286 249 241 246 234 252 265 238 249
123 170 156 155 186 319 316 245 315 325 264 151 129 187 186 177 182 191 194 198 206 204 200 199 202 205 209 202 182 132 133 131 114 136 135 143 216 164 143 144 157 162 158 160 159 155 152 155 143 145 150 154 160 156 156 152 147 138 130 131 142 135 153 119 106 117 159 184 193 209 224 224 224 219 217 214 224 226 238 245 249 264 268 282 280 290 294 290 269 255 228 258 239 219 256 243 247
147 125 171 184 103 180 191 100 356 28 354 324 148 190 169 88 114 209 199 202 209 209 214 235 231 210 210 200 183 160 118 92 86 159 125 131 184 160 147 154 155 155 159 157 161 157 152 157 151 153 157 158 153 153 145 139 131 119 100 116 103 92 117 137 130 143 149 180 168 170 178 224 242 237 209 209 215 223 229 237 252 258 269 260 269 280 281 277 285 266 244 236 262 261 216 225 213
174 181 145 140 155 171 359 129 314 318 89 42 99 147 218 169 176 200 229 218 218 68 47 344 297 265 119 120 159 151 125 133 150 112 89 115 166 174 166 168 163 160 158 156 159 156 151 157 157 157 153 150 150 147 146 139 132 129 126 112 111 114 127 130 138 116 91 97 100 90 79 101 141 164 189 209 219 220 224 243 235 243 258 267 266 273 285 285 288 282 267 268 254 266 278 274 229
179 230 205 181 172 177 166 21 324 199 186 82 236 214 225 159 196 196 193 195 200 125 177 231 220 202 159 169 118 127 125 140 155 146 127 114 254 176 168 164 168 160 156 150 145 148 148 150 151 147 143 148 150 149 149 151 148 141 142 137 138 138 132 146 131 101 75 64 74 82 98 105 118 127 139 145 159 251 254 252 262 258 246 250 253 264 270 278 283 275 245 257 263 256 261 272 277
174 199 187 192 197 158 90 287 227 181 213 136 314 231 206 123 204 209 197 195 191 150 195 211 211 205 191 182 152 157 162 161 173 149 141 146 191 195 171 169 162 160 151 144 138 141 140 141 144 146 145 140 136 139 145 141 138 143 140 144 152 157 145 106 90 89 92 85 80 74 73 81 91 99 86 70 91 60 6 346 320 300 300 286 288 279 276 273 285 282 269 253 259 261 252 258 262
196 124 169 167 168 182 166 117 239 315 344 287 169 236 248 219 209 212 191 197 183 163 197 199 203 204 198 192 175 173 177 181 175 163 144 147 162 176 173 161 154 150 145 140 133 133 136 140 135 124 122 126 123 127 123 119 124 120 108 108 115 120 121 123 123 109 104 101 79 62 66 54 45 51 67 67 49 36 25 24 335 322 312 311 304 285 279 283 278 275 271 272 259 250 257 260 269
153 158 158 172 175 178 160 206 217 16 337 240 152 139 220 233 168 49 176 192 200 178 200 206 205 205 199 190 182 183 186 192 176 158 157 154 152 162 150 146 138 136 136 130 125 123 117 107 104 97 96 95 93 96 99 88 94 100 109 125 120 120 124 125 124 111 99 82 75 60 56 56 52 47 45 55 53 43 31 8 1 338 317 305 283 276 269 275 282 289 285 274 268 258 256 269 269
155 152 147 135 150 133 187 201 235 267 250 245 199 174 230 227 165 168 176 203 204 195 201 208 207 203 198 191 191 188 188 186 170 150 143 138 137 139 145 132 117 112 107 106 104 108 101 97 98 100 95 90 89 91 91 91 95 100 106 118 122 121 118 111 99 87 71 66 76 64 59 50 37 44 39 32 33 29 20 9 359 350 325 302 286 281 286 277 272 277 280 287 290 285 270 263 274
124 136 132 133 126 132 67 42 146 192 244 243 149 179 214 259 183 190 170 197 193 192 204 213 199 206 207 201 192 181 185 178 170 149 139 134 124 128 136 122 115 112 105 101 95 94 95 94 99 96 93 93 93 93 96 96 93 93 102 104 107 109 108 105 103 84 74 65 55 50 39 39 32 30 16 28 28 18 13 11 1 348 329 315 298 298 294 294 291 289 290 290 281 280 284 283 280
143 144 139 129 103 122 155 143 198 219 242 146 161 187 186 235 180 219 210 203 201 184 192 201 191 197 203 200 196 188 177 172 161 145 137 128 122 131 129 123 120 114 110 112 113 110 106 108 108 101 90 95 98 99 97 92 90 86 85 87 88 84 90 92 88 84 62 46 27 19 19 34 33 30 19 18 20 8 2 1 354 342 334 327 322 310 298 294 295 291 286 278 284 276 273 270 269
167 151 153 166 161 147 186 170 199 214 231 83 72 152 175 231 239 71 239 221 1 230 202 191 189 195 197 195 188 178 172 163 162 146 138 136 136 134 126 121 120 113 119 115 114 112 110 111 112 107 101 102 97 97 93 89 85 83 86 88 89 86 82 83 82 64 50 48 57 59 46 44 27 12 12 3 4 358 355 352 346 337 331 330 323 314 303 298 292 285 286 281 274 280 286 282 273
176 172 171 175 167 181 196 201 220 312 95 223 357 145 246 38 220 158 234 50 305 295 207 184 191 194 194 190 178 172 170 162 158 146 140 137 135 131 128 127 124 117 119 117 117 112 113 116 112 107 108 105 102 92 87 83 78 78 79 84 87 88 76 67 67 70 64 60 51 52 46 22 16 17 8 7 359 355 356 348 340 334 332 328 322 315 310 306 299 291 284 280 279 276 274 272 271
187 146 178 194 178 176 189 194 199 210 191 127 91 163 215 186 131 28 201 165 132 137 150 161 171 171 177 166 171 172 168 157 155 143 139 139 137 135 131 128 123 120 116 113 117 125 122 112 109 112 106 94 89 86 85 87 85 78 73 69 67 74 78 76 68 60 55 51 46 47 40 25 20 9 5 360 360 360 355 348 347 340 336 330 325 322 323 315 306 297 291 284 287 288 284 281 273
183 153 85 166 201 134 209 185 217 158 156 125 175 213 5 114 70 109 144 137 103 131 144 142 137 151 161 166 174 175 166 156 156 144 137 140 138 135 129 122 118 108 100 100 114 114 107 105 99 94 91 85 83 85 84 85 82 78 70 68 65 66 69 71 67 60 60 54 52 44 36 23 13 1 2 0 0 1 353 351 350 346 340 337 328 321 326 325 320 316 304 298 296 297 294 291 284
171 165 198 199 93 109 92 82 31 50 30 233 109 191 199 246 211 127 155 149 148 146 156 161 160 154 162 175 162 150 141 144 149 143 142 143 140 134 130 124 113 104 103 97 93 99 107 107 105 97 90 83 80 81 84 82 84 79 70 66 65 65 64 62 63 60 57 52 47 38 23 15 9 8 3 360 356 358 353 355 356 353 350 341 334 334 336 331 326 319 315 315 310 308 302 296 292
118 203 191 82 50 17 171 204 123 207 215 214 147 190 151 169 204 145 153 166 150 168 169 173 166 166 168 158 149 135 114 49 174 148 143 138 129 128 122 120 127 126 125 116 103 94 91 87 97 104 98 93 85 80 79 80 82 77 72 68 64 63 65 64 61 54 49 49 45 34 20 15 14 9 6 360 360 358 358 360 359 357 355 354 350 342 340 330 325 318 316 315 317 315 307 307 298
193 192 123 174 186 210 177 128 180 184 202 218 176 128 213 209 164 148 180 178 173 176 169 169 169 171 167 159 154 156 156 165 178 157 129 120 113 114 114 109 109 106 103 103 103 100 94 88 83 90 92 91 92 88 84 77 73 73 70 66 62 62 60 60 55 53 53 49 40 30 29 26 19 15 10 7 5 4 5 5 4 359 356 356 354 350 344 338 330 320 322 316 313 313 309 307 310
351 128 177 12 207 203 160 208 33 199 211 164 212 141 228 196 178 189 190 190 180 173 179 183 174 171 160 160 153 159 149 71 66 68 83 83 111 122 117 117 111 105 99 95 91 91 96 97 97 97 94 92 89 86 82 78 72 75 75 70 61 57 55 54 52 51 52 46 40 37 33 29 25 19 16 14 14 14 12 9 7 2 360 357 354 350 345 340 335 330 329 324 321 317 311 308 309
165 189 182 182 238 345 1 87 211 205 172 202 272 240 196 170 204 206 196 186 183 179 181 171 156 164 162 159 146 131 105 104 101 99 104 99 93 101 107 103 98 95 88 88 91 94 97 99 96 94 94 91 86 83 82 78 79 74 72 67 64 59 58 59 58 55 53 47 44 40 35 32 28 27 20 20 19 18 16 13 11 10 6 2 356 353 350 344 342 336 329 324 317 315 313 310 308
186 188 188 185 142 161 181 201 89 187 184 187 175 251 70 98 54 292 256 178 176 176 170 149 157 155 155 151 130 122 121 124 127 124 121 121 125 116 105 106 101 101 103 100 99 101 98 94 95 95 90 87 89 83 83 82 77 73 71 71 67 63 58 54 52 48 47 46 43 40 36 34 34 30 25 22 21 19 16 13 11 7 4 360 355 352 349 346 345 338 331 327 318 313 310 304 302